Date String (YYYY-MM-DD hh:mm:ss) UTC,Instrument flags,absolute air pressure of the measurement (hPa),sample flow rate (lpm),inlet stack bypass flow (lpm),air temperature of the measurement (°C),ambient temperature measured by the external sensor (°C),aerosol sample conditioner tube jacket temperature (°C),OPC LED temperature (°C),internal box temperature (°C),relative humidity of the measurement (%),span deviation,mass concentration of particles derived from Lorenz-Mie calculation of OPC scattering (μg/m³),mass concentration of particles derived from Lorenz-Mie calculation of OPC scattering (μg/m³),mass concentration of particles derived from Lorenz-Mie calculation of OPC scattering (μg/m³)
DateTimeUTC,F1_M11,P_M11,Q1_M11,Q2_M11,T1_M11,T2_M11,T3_M11,T4_M11,T5_M11,U1_M11,ZSPAN_M11,X0_M11,X2_M11,X1_M11
2023-07-06 19:00:00,SystemResetWarning,0832.3,4.95,000.00,031.5,027.6,000.0,039.5,031.6,33.5,-001.2,0016.26,0010.42,0009.91
2023-07-06 19:01:00,SystemResetWarning,0832.3,5.02,000.00,031.5,027.8,000.0,039.5,031.7,34.0,-001.2,0016.34,0010.52,0010.03
2023-07-06 19:02:00,SystemResetWarning,0832.3,5.01,000.00,031.5,028.1,000.0,039.5,031.7,33.6,-000.9,0016.40,0010.62,0010.15
2023-07-06 19:03:00,SystemResetWarning,0832.3,4.99,000.00,031.5,028.2,000.0,039.5,031.7,33.6,-000.9,0016.47,0010.73,0010.27
2023-07-06 19:04:00,SystemResetWarning,0832.3,4.99,000.00,031.5,028.4,000.0,039.5,031.8,33.0,-001.2,0016.61,0010.84,0010.40
2023-07-06 19:05:00,SystemResetWarning,0832.2,4.99,000.00,031.6,027.3,000.0,039.4,031.8,33.4,-001.4,0016.21,0010.95,0010.51
2023-07-06 19:06:00,SystemResetWarning,0832.2,5.00,000.00,031.5,025.7,000.0,039.3,031.5,33.2,-001.4,0015.44,0011.03,0010.60
2023-07-06 19:07:00,SystemResetWarning,0832.2,5.01,000.00,031.4,025.2,000.0,039.2,031.3,33.4,-001.6,0015.25,0011.14,0010.70
2023-07-06 19:08:00,SystemResetWarning,0832.2,5.01,000.00,031.2,025.3,000.0,039.2,031.1,33.4,-001.7,0015.43,0011.27,0010.82
2023-07-06 19:09:00,SystemResetWarning,0832.2,5.00,000.00,031.1,025.7,000.0,039.3,031.1,34.2,-001.9,0015.64,0011.41,0010.93
2023-07-06 19:10:00,SystemResetWarning,0832.2,4.99,000.00,031.0,026.2,000.0,039.3,031.1,33.6,-002.1,0015.60,0011.47,0011.01
2023-07-06 19:11:00,SystemResetWarning,0832.2,5.00,000.00,030.9,026.6,000.0,039.3,031.2,34.0,-002.2,0015.68,0011.53,0011.07
2023-07-06 19:12:00,SystemResetWarning,0832.2,5.01,000.00,030.9,027.0,000.0,039.2,031.3,33.7,-002.4,0015.88,0011.59,0011.09
2023-07-06 19:13:00,SystemResetWarning,0832.2,4.99,000.00,030.9,027.4,000.0,039.2,031.3,33.7,-002.5,0015.86,0011.60,0011.10
2023-07-06 19:14:00,SystemResetWarning,0832.2,4.98,000.00,030.8,027.6,000.0,039.2,031.4,35.0,-002.6,0015.91,0011.63,0011.13
2023-07-06 19:15:00,SystemResetWarning,0832.2,5.04,000.00,030.9,027.9,000.0,039.2,031.5,34.6,-002.5,0015.91,0011.65,0011.13
2023-07-06 19:16:00,SystemResetWarning,0832.2,4.98,000.00,031.0,028.1,000.0,039.2,031.6,34.0,-002.5,0016.02,0011.70,0011.16
2023-07-06 19:17:00,SystemResetWarning,0832.2,5.00,000.00,031.0,028.2,000.0,039.2,031.6,35.2,-002.5,0016.04,0011.69,0011.17
2023-07-06 19:18:00,SystemResetWarning,0832.2,5.02,000.00,031.2,028.3,000.0,039.2,031.7,34.7,-002.5,0015.96,0011.64,0011.12
2023-07-06 19:19:00,SystemResetWarning,0832.1,4.98,000.00,031.3,027.1,000.0,039.1,031.7,34.0,-002.6,0015.79,0011.52,0011.02
2023-07-06 19:20:00,SystemResetWarning,0832.2,5.01,000.00,031.3,025.6,000.0,039.0,031.5,32.4,-002.5,0015.82,0011.39,0010.90
2023-07-06 19:21:00,SystemResetWarning,0832.2,5.01,000.00,031.3,025.1,000.0,038.9,031.3,33.0,-002.3,0015.75,0011.28,0010.77
2023-07-06 19:22:00,SystemResetWarning,0832.2,5.01,000.00,031.1,025.4,000.0,039.0,031.0,33.0,-002.1,0015.48,0011.12,0010.64
2023-07-06 19:23:00,SystemResetWarning,0832.2,5.00,000.00,031.0,025.8,000.0,039.0,031.0,33.6,-002.0,0015.19,0010.96,0010.51
2023-07-06 19:24:00,SystemResetWarning,0832.2,4.98,000.00,031.0,026.3,000.0,039.1,031.1,34.7,-002.0,0015.05,0010.82,0010.38
2023-07-06 19:25:00,SystemResetWarning,0832.1,5.00,000.00,031.0,026.7,000.0,039.1,031.2,35.6,-001.9,0015.67,0010.67,0010.26
2023-07-06 19:26:00,SystemResetWarning,0832.1,5.02,000.00,031.2,027.0,000.0,039.1,031.4,34.6,-002.0,0015.59,0010.60,0010.19
2023-07-06 19:27:00,SystemResetWarning,0832.1,4.98,000.00,031.3,027.4,000.0,039.1,031.5,33.8,-002.0,0015.53,0010.56,0010.13
2023-07-06 19:28:00,SystemResetWarning,0832.1,5.02,000.00,031.5,027.6,000.0,039.2,031.6,34.4,-002.1,0015.47,0010.52,0010.07
2023-07-06 19:29:00,SystemResetWarning,0832.1,5.00,000.00,031.5,027.9,000.0,039.2,031.6,34.3,-002.1,0015.41,0010.49,0010.06
2023-07-06 19:30:00,SystemResetWarning,0832.1,4.99,000.00,031.6,028.1,000.0,039.3,031.7,34.1,-002.1,0015.55,0010.55,0010.07
2023-07-06 19:31:00,SystemResetWarning,0832.1,5.01,000.00,031.6,028.3,000.0,039.3,031.7,34.2,-002.1,0015.62,0010.63,0010.12
2023-07-06 19:32:00,SystemResetWarning,0832.1,4.99,000.00,031.7,028.4,000.0,039.4,031.8,33.9,-002.2,0015.75,0010.66,0010.18
2023-07-06 19:33:00,SystemResetWarning,0832.1,4.99,000.00,031.7,027.8,000.0,039.4,031.8,33.1,-002.4,0015.75,0010.68,0010.21
2023-07-06 19:34:00,SystemResetWarning,0832.0,5.00,000.00,031.7,026.1,000.0,039.3,031.6,32.8,-002.2,0015.76,0010.72,0010.24
2023-07-06 19:35:00,SystemResetWarning,0832.0,5.00,000.00,031.7,025.3,000.0,039.2,031.4,32.6,-002.1,0015.87,0010.79,0010.28
2023-07-06 19:36:00,SystemResetWarning,0832.0,5.01,000.00,031.5,025.3,000.0,039.2,031.1,32.9,-002.0,0015.64,0010.83,0010.29
2023-07-06 19:37:00,SystemResetWarning,0832.0,5.02,000.00,031.4,025.7,000.0,039.2,031.1,33.4,-001.9,0015.76,0010.82,0010.29
2023-07-06 19:38:00,SystemResetWarning,0832.0,4.99,000.00,031.3,026.2,000.0,039.3,031.1,33.1,-002.1,0015.99,0010.84,0010.32
2023-07-06 19:39:00,SystemResetWarning,0832.1,5.00,000.00,031.2,026.6,000.0,039.3,031.2,33.1,-002.1,0016.15,0010.93,0010.39
2023-07-06 19:40:00,SystemResetWarning,0832.0,5.01,000.00,031.2,027.0,000.0,039.3,031.3,33.4,-002.1,0016.50,0011.04,0010.48
2023-07-06 19:41:00,SystemResetWarning,0832.1,5.00,000.00,031.1,027.3,000.0,039.3,031.4,33.7,-002.2,0016.66,0011.12,0010.55
2023-07-06 19:42:00,SystemResetWarning,0832.0,5.00,000.00,031.1,027.6,000.0,039.3,031.4,33.8,-002.1,0016.65,0011.25,0010.67
2023-07-06 19:43:00,SystemResetWarning,0832.1,5.00,000.00,031.1,027.8,000.0,039.3,031.5,33.9,-002.1,0016.64,0011.40,0010.79
2023-07-06 19:44:00,SystemResetWarning,0832.1,5.01,000.00,031.1,028.0,000.0,039.3,031.5,33.2,-002.2,0016.90,0011.58,0010.94
2023-07-06 19:45:00,SystemResetWarning,0832.0,5.01,000.00,031.1,028.2,000.0,039.3,031.6,33.8,-002.2,0017.05,0011.68,0011.04
2023-07-06 19:46:00,SystemResetWarning,0832.1,5.01,000.00,031.1,028.4,000.0,039.3,031.6,34.4,-002.2,0017.13,0011.74,0011.11
2023-07-06 19:47:00,SystemResetWarning,0832.0,4.97,000.00,031.1,027.5,000.0,039.2,031.6,34.9,-002.1,0016.77,0011.81,0011.19
2023-07-06 19:48:00,SystemResetWarning,0832.0,5.05,000.00,031.1,025.8,000.0,039.1,031.5,35.1,-001.9,0016.63,0011.95,0011.33
2023-07-06 19:49:00,SystemResetWarning,0832.1,4.96,000.00,031.2,025.2,000.0,038.9,031.4,34.1,-001.9,0016.55,0012.04,0011.41
2023-07-06 19:50:00,SystemResetWarning,0832.0,5.01,000.00,031.1,025.3,000.0,038.9,031.2,34.6,-001.7,0016.45,0012.03,0011.44
2023-07-06 19:51:00,SystemResetWarning,0832.0,5.00,000.00,031.1,025.7,000.0,039.0,031.1,36.1,-001.5,0016.29,0012.02,0011.41
2023-07-06 19:52:00,SystemResetWarning,0832.0,5.03,000.00,031.2,026.1,000.0,039.0,031.2,35.2,-001.3,0016.18,0011.98,0011.42
2023-07-06 19:53:00,SystemResetWarning,0832.0,4.97,000.00,031.4,026.6,000.0,039.1,031.4,33.9,-001.2,0016.95,0011.98,0011.44
2023-07-06 19:54:00,SystemResetWarning,0832.0,5.02,000.00,031.6,027.0,000.0,039.1,031.5,33.9,-001.1,0017.02,0011.99,0011.46
2023-07-06 19:55:00,SystemResetWarning,0832.0,5.00,000.00,031.7,027.3,000.0,039.2,031.5,32.8,-001.0,0017.09,0011.98,0011.44
2023-07-06 19:56:00,SystemResetWarning,0832.0,4.99,000.00,031.7,027.6,000.0,039.2,031.6,32.8,-000.9,0017.11,0011.98,0011.43
2023-07-06 19:57:00,SystemResetWarning,0832.0,5.01,000.00,031.7,027.8,000.0,039.3,031.6,32.9,-001.0,0017.11,0011.98,0011.42
2023-07-06 19:58:00,SystemResetWarning,0831.9,5.00,000.00,031.7,028.1,000.0,039.4,031.7,32.5,-001.1,0017.11,0011.99,0011.42
2023-07-06 19:59:00,SystemResetWarning,0832.0,5.00,000.00,031.7,028.2,000.0,039.5,031.7,32.3,-001.4,0017.12,0011.98,0011.40
